SWR176 LSZH-WSSS

Flight info

Callsign SWR176
Flight time N/A
Altitude 39000
Route DEGES Z2 UMVEG DCT DIMLO DCT TEGRI/N0486F330 DCT VEVIN DCT DINRO DCT UDROS DCT ABSAX DCT KARDE DCT REBLO M11 MATAL/N0483F350 M11 RODAR A909 ABDAN A846 RANAH L750 ZB G202 RK P628 LATOS/N0498F370 P628 IBANI L510 BIDEX/N0492F390 L510 GIVAL P628 VPL Y503 RINBA Y507 MAKNA Y511 TOPOR A464 ARAMA DCT TEBUN TEBUN1A
Aircraft MD11/H-SDE1E2E3FGHIJ2J3J4J5M1RWXY/LB1D1

Departure

Time 2026-05-01 07:44
Airport Zürich Airport (LSZH)

Arrival

Time N/A
Airport Singapore Changi Airport (WSSS)
Time Latitude Longitude Altitude Speed Heading
2026-05-01 07:23 47.46062 8.55337 1404 ft 0 kts
2026-05-01 07:31 47.45991 8.55340 1414 ft 4 kts 327°
2026-05-01 07:32 47.45972 8.55400 1415 ft 4 kts 275°
2026-05-01 07:32 47.45972 8.55409 1415 ft 6 kts 276°
2026-05-01 07:36 47.45972 8.55402 1415 ft 2 kts 276°
2026-05-01 07:36 47.45975 8.55365 1414 ft 6 kts 276°
2026-05-01 07:36 47.45980 8.55288 1407 ft 9 kts 276°
2026-05-01 07:36 47.45988 8.55175 1402 ft 13 kts 276°
2026-05-01 07:37 47.46066 8.54906 1406 ft 17 kts 334°
2026-05-01 07:37 47.46179 8.54831 1399 ft 18 kts 336°
2026-05-01 07:37 47.46296 8.54750 1403 ft 19 kts 334°
2026-05-01 07:38 47.46416 8.54665 1400 ft 18 kts 335°
2026-05-01 07:38 47.46526 8.54592 1400 ft 16 kts 335°
2026-05-01 07:38 47.46742 8.54445 1401 ft 19 kts 339°
2026-05-01 07:39 47.46872 8.54369 1388 ft 20 kts 336°
2026-05-01 07:39 47.46998 8.54284 1401 ft 20 kts 335°
2026-05-01 07:39 47.47240 8.54113 1403 ft 19 kts 334°
2026-05-01 07:40 47.47359 8.54031 1402 ft 18 kts 335°
2026-05-01 07:40 47.47472 8.53956 1408 ft 17 kts 336°
2026-05-01 07:40 47.47576 8.53885 1405 ft 16 kts 335°
2026-05-01 07:40 47.47672 8.53818 1413 ft 15 kts 333°
2026-05-01 07:41 47.47695 8.53708 1412 ft 11 kts 245°
2026-05-01 07:41 47.47634 8.53654 1413 ft 12 kts 202°
2026-05-01 07:41 47.47461 8.53671 1403 ft 0 kts 155°
2026-05-01 07:42 47.47459 8.53673 1405 ft 3 kts 155°
2026-05-01 07:43 47.47361 8.53740 1404 ft 43 kts 155°
2026-05-01 07:43 47.46854 8.54089 1387 ft 115 kts 155°
2026-05-01 07:43 47.44803 8.55544 1681 ft 183 kts 151°
2026-05-01 07:44 47.43766 8.58813 2634 ft 191 kts 72°
2026-05-01 07:44 47.45103 8.62145 3606 ft 196 kts 75°
2026-05-01 07:45 47.45405 8.64022 4185 ft 195 kts 79°
2026-05-01 07:45 47.45648 8.66034 4599 ft 199 kts 82°
2026-05-01 07:45 47.45856 8.68143 4774 ft 217 kts 83°
2026-05-01 07:45 47.46028 8.70325 5154 ft 220 kts 84°
2026-05-01 07:46 47.46181 8.72700 5265 ft 241 kts 86°
2026-05-01 07:46 47.46314 8.75199 5418 ft 254 kts 86°
2026-05-01 07:46 47.46585 8.80634 5713 ft 277 kts 89°
2026-05-01 07:47 47.46455 8.83575 5876 ft 296 kts 99°
2026-05-01 07:47 47.46090 8.86568 6550 ft 299 kts 102°
2026-05-01 07:47 47.45668 8.89589 7294 ft 300 kts 102°
2026-05-01 07:47 47.45237 8.92619 8052 ft 302 kts 101°
2026-05-01 07:48 47.44360 8.98735 9446 ft 306 kts 102°
2026-05-01 07:48 47.43917 9.01825 10175 ft 308 kts 101°
2026-05-01 07:48 47.43468 9.04960 10528 ft 320 kts 101°
2026-05-01 07:49 47.42994 9.08275 10660 ft 338 kts 101°
2026-05-01 07:49 47.41992 9.15259 11585 ft 353 kts 101°
2026-05-01 07:49 47.41527 9.18827 12178 ft 355 kts 95°
2026-05-01 07:50 47.41578 9.22453 12792 ft 356 kts 82°
2026-05-01 07:50 47.42576 9.29667 14016 ft 360 kts 76°
2026-05-01 07:50 47.43167 9.33278 14571 ft 363 kts 76°
2026-05-01 07:51 47.43756 9.36911 15104 ft 365 kts 76°
2026-05-01 07:51 47.44339 9.40575 15632 ft 367 kts 76°
2026-05-01 07:51 47.44907 9.44255 16208 ft 369 kts 77°
2026-05-01 07:52 47.46020 9.51648 17285 ft 373 kts 77°
2026-05-01 07:52 47.46564 9.55292 17820 ft 375 kts 77°
2026-05-01 07:52 47.47089 9.59183 18328 ft 378 kts 83°
2026-05-01 07:53 47.47031 9.67038 19238 ft 385 kts 93°
2026-05-01 07:53 47.46800 9.70934 19658 ft 388 kts 93°
2026-05-01 07:53 47.46544 9.74974 20071 ft 391 kts 93°
2026-05-01 07:53 47.46298 9.78938 20450 ft 394 kts 93°
2026-05-01 07:54 47.45823 9.87059 21290 ft 399 kts 92°
2026-05-01 07:55 47.45126 9.99443 22511 ft 408 kts 92°
2026-05-01 07:55 47.44652 10.07844 23311 ft 413 kts 92°
2026-05-01 07:56 47.43853 10.19595 24318 ft 421 kts 96°
2026-05-01 07:56 47.42960 10.26720 24885 ft 425 kts 98°
2026-05-01 07:57 47.42368 10.31010 25223 ft 427 kts 98°
2026-05-01 07:57 47.40978 10.41031 26006 ft 431 kts 98°
2026-05-01 07:58 47.39779 10.49777 26707 ft 436 kts 98°
2026-05-01 07:58 47.38763 10.57148 27249 ft 439 kts 97°
2026-05-01 07:59 47.37535 10.66016 27897 ft 442 kts 97°
2026-05-01 07:59 47.36298 10.74928 28497 ft 446 kts 97°
2026-05-01 08:00 47.33781 10.92953 29656 ft 454 kts 97°
2026-05-01 08:01 47.31838 11.06678 30470 ft 458 kts 97°
2026-05-01 08:01 47.31184 11.11280 30704 ft 460 kts 97°
2026-05-01 08:01 47.30526 11.15901 30939 ft 462 kts 97°
2026-05-01 08:02 47.29191 11.25205 31332 ft 465 kts 97°
2026-05-01 08:03 47.27161 11.39231 31374 ft 467 kts 97°
2026-05-01 08:03 47.25182 11.53230 31382 ft 464 kts 95°
2026-05-01 08:04 47.23124 11.71893 31375 ft 463 kts 94°
2026-05-01 08:05 47.21603 11.85931 31384 ft 462 kts 94°
2026-05-01 08:06 47.20177 11.99917 31374 ft 461 kts 93°
2026-05-01 08:07 47.18377 12.18531 31367 ft 461 kts 93°
2026-05-01 08:08 47.17000 12.32520 31359 ft 460 kts 93°
2026-05-01 08:09 47.15145 12.51074 31353 ft 458 kts 93°
2026-05-01 08:09 47.14205 12.60371 31349 ft 459 kts 93°
2026-05-01 08:10 47.12309 12.78856 31347 ft 457 kts 93°
2026-05-01 08:11 47.10397 12.97238 31357 ft 458 kts 93°
2026-05-01 08:12 47.08923 13.11052 31354 ft 455 kts 93°
2026-05-01 08:13 47.07393 13.24822 31362 ft 457 kts 93°
2026-05-01 08:13 47.05889 13.38583 31364 ft 454 kts 93°
2026-05-01 08:14 47.04899 13.47694 31379 ft 454 kts 93°
2026-05-01 08:14 47.03894 13.56843 31381 ft 453 kts 93°
2026-05-01 08:15 47.02373 13.70471 31391 ft 451 kts 93°
2026-05-01 08:16 47.01367 13.79468 31398 ft 451 kts 93°
2026-05-01 08:16 47.00341 13.88543 31405 ft 450 kts 93°
2026-05-01 08:17 46.99310 13.97591 31415 ft 449 kts 93°
2026-05-01 08:17 46.98278 14.06590 31412 ft 447 kts 93°
2026-05-01 08:18 46.97237 14.15597 31410 ft 448 kts 93°
2026-05-01 08:19 46.95131 14.33490 31419 ft 446 kts 94°
2026-05-01 08:19 46.94041 14.42394 31423 ft 445 kts 94°
2026-05-01 08:20 46.92966 14.51299 31421 ft 445 kts 94°
2026-05-01 08:20 46.91908 14.60117 31420 ft 443 kts 94°
2026-05-01 08:21 46.90839 14.69033 31418 ft 443 kts 94°
2026-05-01 08:21 46.89763 14.77895 31409 ft 441 kts 94°
2026-05-01 08:22 46.88684 14.86705 31406 ft 441 kts 94°
2026-05-01 08:22 46.87600 14.95514 31413 ft 439 kts 94°
2026-05-01 08:23 46.86514 15.04311 31398 ft 439 kts 94°
2026-05-01 08:23 46.85419 15.13096 31398 ft 438 kts 94°
2026-05-01 08:24 46.84324 15.21836 31397 ft 437 kts 94°
2026-05-01 08:24 46.83230 15.30504 31401 ft 436 kts 94°
2026-05-01 08:25 46.82123 15.39216 31400 ft 436 kts 94°
2026-05-01 08:25 46.81013 15.47888 31402 ft 435 kts 94°
2026-05-01 08:26 46.79860 15.56559 31399 ft 434 kts 94°
2026-05-01 08:26 46.78710 15.65218 31401 ft 433 kts 94°
2026-05-01 08:27 46.77577 15.73856 31393 ft 433 kts 94°
2026-05-01 08:27 46.76446 15.82484 31389 ft 432 kts 94°
2026-05-01 08:28 46.75311 15.91090 31389 ft 432 kts 94°
2026-05-01 08:28 46.74175 15.99651 31395 ft 432 kts 94°
2026-05-01 08:29 46.73029 16.08237 31397 ft 432 kts 94°
2026-05-01 08:29 46.71876 16.16819 31394 ft 431 kts 94°
2026-05-01 08:30 46.70720 16.25373 31392 ft 430 kts 94°
2026-05-01 08:30 46.69558 16.33924 31395 ft 430 kts 94°
2026-05-01 08:31 46.68435 16.42473 31395 ft 427 kts 92°
2026-05-01 08:31 46.67716 16.51009 31395 ft 424 kts 89°
2026-05-01 08:32 46.67143 16.59583 31393 ft 424 kts 89°
2026-05-01 08:32 46.66568 16.68125 31393 ft 424 kts 89°
2026-05-01 08:33 46.65971 16.76662 31395 ft 424 kts 89°
2026-05-01 08:33 46.65362 16.85206 31396 ft 424 kts 89°
2026-05-01 08:34 46.64749 16.93693 31400 ft 424 kts 89°
2026-05-01 08:34 46.64128 17.02231 31402 ft 424 kts 89°
2026-05-01 08:35 46.63499 17.10771 31406 ft 424 kts 90°
2026-05-01 08:35 46.62865 17.19288 31404 ft 423 kts 90°
2026-05-01 08:36 46.62225 17.27800 31403 ft 423 kts 90°
2026-05-01 08:36 46.61579 17.36306 31405 ft 423 kts 90°
2026-05-01 08:37 46.60927 17.44825 31394 ft 423 kts 90°
2026-05-01 08:37 46.60274 17.53255 31388 ft 423 kts 90°
2026-05-01 08:38 46.59604 17.61772 31388 ft 423 kts 90°
2026-05-01 08:38 46.58894 17.70258 31379 ft 422 kts 90°
2026-05-01 08:39 46.58194 17.78737 31382 ft 422 kts 90°
2026-05-01 08:39 46.57508 17.87188 31373 ft 422 kts 90°
2026-05-01 08:40 46.56471 17.99931 31381 ft 422 kts 90°
2026-05-01 08:40 46.55772 18.08420 31380 ft 423 kts 90°
2026-05-01 08:41 46.55072 18.16833 31380 ft 422 kts 90°
2026-05-01 08:41 46.54359 18.25320 31379 ft 422 kts 90°
2026-05-01 08:42 46.53643 18.33779 31381 ft 422 kts 90°
2026-05-01 08:42 46.52921 18.42230 31377 ft 423 kts 90°
2026-05-01 08:43 46.52313 18.49298 31377 ft 423 kts 90°
2026-05-01 08:43 46.51576 18.57781 31380 ft 423 kts 90°
2026-05-01 08:44 46.50835 18.66232 31378 ft 423 kts 90°
2026-05-01 08:44 46.50085 18.74726 31379 ft 423 kts 90°
2026-05-01 08:45 46.49325 18.83157 31381 ft 424 kts 91°
2026-05-01 08:45 46.48522 18.91649 31374 ft 424 kts 91°
2026-05-01 08:46 46.47731 19.00141 31375 ft 425 kts 91°
2026-05-01 08:46 46.46951 19.08632 31374 ft 425 kts 91°
2026-05-01 08:47 46.46166 19.17139 31371 ft 425 kts 91°
2026-05-01 08:47 46.45376 19.25645 31371 ft 426 kts 91°
2026-05-01 08:48 46.44584 19.34096 31371 ft 426 kts 91°
2026-05-01 08:48 46.43778 19.42626 31370 ft 427 kts 91°
2026-05-01 08:49 46.42965 19.51154 31368 ft 427 kts 91°
2026-05-01 08:49 46.42147 19.59675 31369 ft 427 kts 91°
2026-05-01 08:50 46.41319 19.68223 31370 ft 428 kts 91°
2026-05-01 08:50 46.40485 19.76769 31360 ft 429 kts 91°
2026-05-01 08:51 46.39642 19.85334 31361 ft 430 kts 91°
2026-05-01 08:51 46.38792 19.93908 31363 ft 430 kts 91°
2026-05-01 08:52 46.37925 20.02487 31364 ft 431 kts 92°
2026-05-01 08:52 46.37019 20.11079 31356 ft 432 kts 92°
2026-05-01 08:53 46.36126 20.19685 31359 ft 433 kts 92°
2026-05-01 08:53 46.35240 20.28309 31355 ft 434 kts 92°
2026-05-01 08:54 46.34349 20.36943 31351 ft 434 kts 92°
2026-05-01 08:54 46.33451 20.45597 31349 ft 435 kts 92°
2026-05-01 08:55 46.32550 20.54204 31348 ft 436 kts 92°
2026-05-01 08:55 46.31634 20.62899 31346 ft 438 kts 92°
2026-05-01 08:56 46.30705 20.71640 31343 ft 440 kts 93°
2026-05-01 08:56 46.29767 20.80402 31341 ft 441 kts 93°
2026-05-01 08:57 46.28818 20.89199 31345 ft 443 kts 93°
2026-05-01 08:57 46.27861 20.98003 31343 ft 444 kts 93°
2026-05-01 08:58 46.26723 21.06808 31347 ft 450 kts 99°
2026-05-01 08:58 46.24743 21.15398 31347 ft 456 kts 104°
2026-05-01 08:59 46.22525 21.23999 31348 ft 457 kts 104°
2026-05-01 08:59 46.20334 21.32638 31350 ft 458 kts 104°
2026-05-01 09:00 46.18170 21.41309 31349 ft 460 kts 104°
2026-05-01 09:00 46.15998 21.50026 31343 ft 462 kts 104°
2026-05-01 09:01 46.13823 21.58723 31339 ft 464 kts 104°
2026-05-01 09:01 46.11620 21.67494 31336 ft 467 kts 105°
2026-05-01 09:02 46.09405 21.76276 31330 ft 468 kts 105°
2026-05-01 09:02 46.07163 21.85125 31321 ft 470 kts 105°
2026-05-01 09:03 46.04913 21.93978 31326 ft 471 kts 105°
2026-05-01 09:03 46.02652 22.02837 31320 ft 472 kts 106°
2026-05-01 09:04 46.00376 22.11707 31324 ft 472 kts 106°
2026-05-01 09:04 45.98087 22.20586 31323 ft 475 kts 107°
2026-05-01 09:05 45.95749 22.29483 31317 ft 476 kts 107°
2026-05-01 09:05 45.93417 22.38401 31311 ft 477 kts 107°
2026-05-01 09:06 45.91089 22.47340 31312 ft 478 kts 107°
2026-05-01 09:06 45.88750 22.56300 31311 ft 479 kts 107°
2026-05-01 09:07 45.86413 22.65213 31310 ft 480 kts 107°
2026-05-01 09:07 45.84054 22.74177 31308 ft 481 kts 107°
2026-05-01 09:08 45.81682 22.83155 31304 ft 482 kts 108°
2026-05-01 09:08 45.79300 22.92137 31304 ft 483 kts 108°
2026-05-01 09:09 45.76907 23.01131 31303 ft 484 kts 108°
2026-05-01 09:09 45.74502 23.10127 31300 ft 485 kts 108°
2026-05-01 09:10 45.72080 23.19158 31301 ft 485 kts 108°
2026-05-01 09:10 45.69651 23.28176 31295 ft 486 kts 108°
2026-05-01 09:11 45.67186 23.37162 31300 ft 487 kts 109°
2026-05-01 09:11 45.64704 23.46203 31293 ft 488 kts 109°
2026-05-01 09:12 45.62237 23.55235 31299 ft 488 kts 109°
2026-05-01 09:12 45.59780 23.64224 31299 ft 489 kts 109°
2026-05-01 09:13 45.57299 23.73270 31302 ft 489 kts 109°
2026-05-01 09:13 45.54806 23.82319 31309 ft 490 kts 109°
2026-05-01 09:14 45.52306 23.91358 31304 ft 490 kts 109°
2026-05-01 09:14 45.49794 24.00411 31311 ft 491 kts 109°
2026-05-01 09:15 45.47294 24.09385 31302 ft 491 kts 109°
2026-05-01 09:15 45.44769 24.18414 31300 ft 492 kts 110°
2026-05-01 09:16 45.42218 24.27503 31302 ft 492 kts 110°
2026-05-01 09:17 45.38383 24.41085 31303 ft 493 kts 110°
2026-05-01 09:17 45.34490 24.54617 31298 ft 493 kts 110°
2026-05-01 09:18 45.30643 24.68071 31302 ft 493 kts 110°
2026-05-01 09:19 45.26755 24.81638 31296 ft 494 kts 110°
2026-05-01 09:20 45.22848 24.95195 31308 ft 494 kts 111°
2026-05-01 09:21 45.17612 25.13241 31313 ft 495 kts 111°
2026-05-01 09:21 45.13675 25.26725 31316 ft 496 kts 111°
2026-05-01 09:22 45.08371 25.44777 31322 ft 497 kts 111°
2026-05-01 09:23 45.04335 25.58280 31321 ft 498 kts 111°
2026-05-01 09:24 45.00280 25.71817 31327 ft 498 kts 111°
2026-05-01 09:25 44.94902 25.89802 31326 ft 499 kts 111°
2026-05-01 09:26 44.91274 26.01857 31327 ft 499 kts 111°
2026-05-01 09:26 44.86916 26.16260 31334 ft 500 kts 112°
2026-05-01 09:27 44.82809 26.29766 31332 ft 500 kts 112°
2026-05-01 09:28 44.80055 26.38777 31333 ft 500 kts 112°
2026-05-01 09:28 44.77292 26.47786 31328 ft 501 kts 112°
2026-05-01 09:29 44.72924 26.61140 31322 ft 502 kts 119°
2026-05-01 09:30 44.67979 26.72224 31325 ft 503 kts 122°
2026-05-01 09:30 44.62276 26.84589 31319 ft 503 kts 122°
2026-05-01 09:31 44.58516 26.92880 31313 ft 503 kts 122°
2026-05-01 09:32 44.52890 27.05290 31317 ft 503 kts 122°
2026-05-01 09:32 44.47256 27.17651 31314 ft 503 kts 122°
2026-05-01 09:33 44.43481 27.25901 31310 ft 503 kts 122°
2026-05-01 09:34 44.37814 27.38242 31309 ft 504 kts 122°
2026-05-01 09:34 44.32102 27.50627 31302 ft 505 kts 123°
2026-05-01 09:35 44.26351 27.62976 31298 ft 505 kts 123°
2026-05-01 09:36 44.22530 27.71129 31294 ft 506 kts 123°
2026-05-01 09:36 44.18684 27.79361 31287 ft 507 kts 123°
2026-05-01 09:37 44.14838 27.87592 31285 ft 507 kts 123°
2026-05-01 09:37 44.09052 27.99928 31278 ft 507 kts 123°
2026-05-01 09:38 44.03250 28.12245 31271 ft 508 kts 124°
2026-05-01 09:39 43.97442 28.24518 31271 ft 508 kts 124°
2026-05-01 09:39 43.93535 28.32746 31263 ft 508 kts 124°
2026-05-01 09:40 43.87730 28.44931 31266 ft 507 kts 125°
2026-05-01 09:41 43.83838 28.53068 31265 ft 507 kts 125°
2026-05-01 09:41 43.77872 28.65171 31264 ft 506 kts 127°
2026-05-01 09:42 43.73769 28.73103 31266 ft 506 kts 128°
2026-05-01 09:43 43.65554 28.88932 31262 ft 506 kts 128°
2026-05-01 09:43 43.61449 28.96842 31262 ft 506 kts 128°
2026-05-01 09:44 43.55476 29.08313 31254 ft 505 kts 129°
2026-05-01 09:45 43.51376 29.16159 31256 ft 504 kts 129°
2026-05-01 09:45 43.45216 29.27907 31248 ft 503 kts 129°
2026-05-01 09:46 43.41117 29.35698 31246 ft 502 kts 130°
2026-05-01 09:46 43.37014 29.43477 31233 ft 501 kts 130°
2026-05-01 09:47 43.32921 29.51217 31243 ft 501 kts 130°
2026-05-01 09:47 43.28801 29.58931 31237 ft 500 kts 131°
2026-05-01 09:48 43.24687 29.66612 31232 ft 499 kts 131°
2026-05-01 09:48 43.20614 29.74238 31218 ft 498 kts 131°
2026-05-01 09:49 43.16525 29.81891 31226 ft 497 kts 132°
2026-05-01 09:49 43.12442 29.89515 31221 ft 496 kts 132°
2026-05-01 09:50 43.08355 29.97124 31219 ft 495 kts 133°
2026-05-01 09:50 43.04284 30.04684 31211 ft 493 kts 133°
2026-05-01 09:51 43.00242 30.12172 31210 ft 491 kts 134°
2026-05-01 09:51 42.96160 30.19712 31206 ft 490 kts 134°
2026-05-01 09:52 42.92113 30.27170 31204 ft 488 kts 134°
2026-05-01 09:52 42.88250 30.34271 31202 ft 487 kts 135°
2026-05-01 09:53 42.84212 30.41673 31210 ft 485 kts 135°
2026-05-01 09:53 42.80169 30.49028 31197 ft 483 kts 135°
2026-05-01 09:54 42.76136 30.56326 31190 ft 482 kts 135°
2026-05-01 09:54 42.72587 30.64189 31186 ft 499 kts 121°
2026-05-01 09:55 42.70610 30.73408 31186 ft 513 kts 110°
2026-05-01 09:55 42.69127 30.82847 31183 ft 513 kts 110°
2026-05-01 09:56 42.67457 30.92263 31179 ft 511 kts 112°
2026-05-01 09:56 42.65649 31.01587 31178 ft 510 kts 113°
2026-05-01 09:57 42.63805 31.10888 31173 ft 510 kts 113°
2026-05-01 09:57 42.61962 31.20183 31170 ft 510 kts 113°
2026-05-01 09:58 42.60118 31.29470 31168 ft 510 kts 113°
2026-05-01 09:58 42.58268 31.38758 31164 ft 509 kts 113°
2026-05-01 09:59 42.56413 31.48021 31160 ft 509 kts 113°
2026-05-01 09:59 42.54551 31.57279 31156 ft 509 kts 113°
2026-05-01 10:00 42.52681 31.66526 31153 ft 509 kts 113°
2026-05-01 10:00 42.50787 31.75769 31152 ft 509 kts 113°
2026-05-01 10:01 42.48865 31.85015 31149 ft 510 kts 113°
2026-05-01 10:01 42.46967 31.94215 31155 ft 511 kts 113°
2026-05-01 10:02 42.45058 32.03489 31148 ft 512 kts 113°
2026-05-01 10:02 42.43140 32.12774 31141 ft 512 kts 113°
2026-05-01 10:03 42.41209 32.22071 31138 ft 513 kts 113°
2026-05-01 10:03 42.39268 32.31376 31132 ft 514 kts 113°
2026-05-01 10:04 42.37307 32.40683 31133 ft 516 kts 113°
2026-05-01 10:04 42.35347 32.50016 31129 ft 514 kts 113°
2026-05-01 10:05 42.33422 32.59268 31126 ft 516 kts 110°
2026-05-01 10:05 42.32243 32.68920 31122 ft 524 kts 102°
2026-05-01 10:06 42.31574 32.78739 31125 ft 526 kts 101°
2026-05-01 10:06 42.30908 32.88575 31120 ft 524 kts 102°
2026-05-01 10:07 42.30168 32.98355 31119 ft 523 kts 102°
2026-05-01 10:07 42.29393 33.08116 31112 ft 522 kts 102°
2026-05-01 10:08 42.28215 33.22743 31112 ft 522 kts 102°
2026-05-01 10:09 42.27423 33.32495 31113 ft 522 kts 102°
2026-05-01 10:09 42.26628 33.42179 31110 ft 522 kts 102°
2026-05-01 10:10 42.25820 33.51925 31100 ft 522 kts 102°
2026-05-01 10:10 42.24592 33.66545 31102 ft 522 kts 102°
2026-05-01 10:11 42.23745 33.76273 31099 ft 522 kts 102°
2026-05-01 10:11 42.22872 33.86016 31094 ft 522 kts 102°
2026-05-01 10:12 42.22160 33.94092 31093 ft 522 kts 102°
2026-05-01 10:13 42.20737 34.10291 31093 ft 522 kts 102°
2026-05-01 10:13 42.19872 34.20018 31090 ft 522 kts 102°
2026-05-01 10:14 42.18559 34.34596 31088 ft 522 kts 102°
2026-05-01 10:14 42.17671 34.44330 31087 ft 522 kts 102°
2026-05-01 10:15 42.16777 34.54036 31083 ft 521 kts 102°
2026-05-01 10:15 42.15883 34.63655 31079 ft 520 kts 102°
2026-05-01 10:16 42.15008 34.72981 31080 ft 520 kts 102°
2026-05-01 10:17 42.13615 34.87470 31075 ft 518 kts 102°
2026-05-01 10:17 42.12344 35.00272 31080 ft 517 kts 102°
2026-05-01 10:18 42.10785 35.16226 31065 ft 515 kts 102°
2026-05-01 10:19 42.10005 35.24171 31063 ft 514 kts 102°
2026-05-01 10:19 42.09053 35.33739 31061 ft 516 kts 102°
2026-05-01 10:20 42.07611 35.48110 31073 ft 516 kts 102°
2026-05-01 10:20 42.06639 35.57688 31064 ft 516 kts 102°
2026-05-01 10:21 42.05166 35.72057 31058 ft 517 kts 102°
2026-05-01 10:22 42.03679 35.86377 31053 ft 517 kts 102°
2026-05-01 10:23 42.02137 36.00773 31046 ft 518 kts 102°
2026-05-01 10:23 42.00572 36.15154 31044 ft 519 kts 102°
2026-05-01 10:24 41.98503 36.34321 31039 ft 520 kts 102°
2026-05-01 10:25 41.96394 36.53554 31034 ft 521 kts 102°
2026-05-01 10:26 41.95299 36.63175 31033 ft 520 kts 103°
2026-05-01 10:27 41.92888 36.82332 31044 ft 519 kts 104°